FW2439 Weather Reports


time (UTC)temp
C
wind
direction
speed
KPH
gust
KPH
rain 1hr
cm
rain 24hr
cm
rain mn
cm
humidity
%
barometer
mb
20260901040057 23 237 0.0 0.0 0.00 0.00 0.00 93 1017.7
20260901034556 23 237 0.0 0.0 0.00 0.00 0.00 93 1017.5
20260901033056 24 237 0.0 0.0 0.00 0.00 0.00 92 1017.8
20260901031554 24 237 0.0 0.0 0.00 0.00 0.00 92 1017.6
20260901030053 24 237 0.0 0.0 0.00 0.00 0.00 91 1017.5
20260901024554 25 237 0.0 0.0 0.00 0.00 0.00 91 1017.5
20260901023055 25 237 0.0 0.0 0.00 0.00 0.00 91 1017.5
20260901021556 25 237 0.0 0.0 0.00 0.00 0.00 90 1017.3
20260901020053 25 237 0.0 0.0 0.00 0.00 0.00 89 1017.2
20260901014551 26 237 0.0 0.0 0.00 0.00 0.00 88 1016.9
20260901013102 26 237 0.0 0.0 0.00 0.00 0.00 87 1016.8
20260901011552 27 237 0.0 0.0 0.00 0.00 0.00 86 1016.6
20260901010054 27 237 0.0 0.0 0.00 0.00 0.00 83 1016.4
20260901004557 28 237 0.0 0.0 0.00 0.00 0.00 81 1016.3
20260901003056 28 237 0.0 0.0 0.00 0.00 0.00 78 1016.4
20260901001548 30 237 0.0 0.0 0.00 0.00 0.00 75 1016.4
20260901000049 30 237 0.0 0.0 0.00 0.00 0.00 72 1016.5
20260831234546 31 237 0.0 0.0 0.00 0.00 0.00 70 1016.6
20260831233044 32 237 0.0 0.0 0.00 0.00 0.00 66 1016.7
20260831231551 32 236 0.0 0.0 0.00 0.00 0.00 64 1016.7
20260831230045 33 237 0.0 0.0 0.00 0.00 0.00 62 1016.8
20260831224540 35 236 0.0 1.6 0.00 0.00 0.00 58 1016.9
20260831223040 35 245 0.0 3.2 0.00 0.00 0.00 57 1016.7
20260831221533 34 235 0.0 1.6 0.00 0.00 0.00 63 1017.1
20260831220033 33 235 0.0 1.6 0.00 0.00 0.00 66 1017.0
20260831214533 32 235 0.0 0.0 0.00 0.00 0.00 67 1017.1
20260831213039 33 235 0.0 1.6 0.00 0.00 0.00 62 1017.0
20260831211531 34 211 0.0 1.6 0.00 0.00 0.00 59 1017.1
20260831210028 35 278 0.0 4.8 0.00 0.00 0.00 57 1017.1
20260831204533 35 223 0.0 6.4 0.00 0.00 0.00 55 1017.3
20260831203029 35 248 0.0 6.4 0.00 0.00 0.00 51 1017.3
20260831201535 35 322 1.6 6.4 0.00 0.00 0.00 53 1017.4
20260831200026 35 210 0.0 8.0 0.00 0.00 0.00 54 1017.5
20260831194545 35 239 0.0 4.8 0.00 0.00 0.00 54 1017.9
20260831193021 35 197 1.6 6.4 0.00 0.00 0.00 55 1018.1
20260831191521 35 226 1.6 4.8 0.00 0.00 0.00 53 1018.3
20260831190019 34 227 1.6 8.0 0.00 0.00 0.00 55 1018.4
20260831184514 33 242 0.0 11.3 0.00 0.00 0.00 56 1018.6
20260831183012 33 205 0.0 8.0 0.00 0.00 0.00 59 1018.9
20260831181508 33 227 0.0 4.8 0.00 0.00 0.00 62 1019.1
20260831180007 32 259 0.0 1.6 0.00 0.00 0.00 65 1019.4
20260831174513 32 252 0.0 1.6 0.00 0.00 0.00 67 1019.7
20260831173006 32 251 0.0 3.2 0.00 0.00 0.00 64 1019.8
20260831171505 32 177 0.0 4.8 0.00 0.00 0.00 64 1019.8
20260831170006 32 340 1.6 6.4 0.00 0.00 0.00 64 1020.0
20260831164504 32 224 1.6 4.8 0.00 0.00 0.00 65 1020.0
20260831163003 33 219 1.6 6.4 0.00 0.00 0.00 63 1020.1
20260831161500 32 210 0.0 11.3 0.00 0.00 0.00 66 1020.1
20260831160058 32 205 1.6 6.4 0.00 0.00 0.00 67 1020.0
20260831154557 32 220 1.6 9.7 0.00 0.00 0.00 67 1020.1
20260831153112 32 235 0.0 8.0 0.00 0.00 0.00 69 1019.9
20260831151555 31 192 0.0 6.4 0.00 0.00 0.00 69 1019.9
20260831150048 31 216 3.2 12.9 0.00 0.00 0.00 70 1020.0
20260831144607 30 248 1.6 6.4 0.00 0.00 0.00 75 1019.9
20260831143041 29 221 0.0 6.4 0.00 0.00 0.00 79 1019.9
20260831141536 27 224 3.2 8.0 0.00 0.00 0.00 83 1019.8
20260831140035 26 233 0.0 1.6 0.00 0.00 0.00 90 1019.8
20260831134529 25 227 0.0 4.8 0.00 0.00 0.00 96 1019.8
20260831133027 23 223 0.0 1.6 0.00 0.00 0.00 99 1019.8
20260831131521 22 223 0.0 0.0 0.00 0.00 0.00 100 1019.7
20260831130022 22 223 0.0 0.0 0.00 0.00 0.00 100 1019.6
20260831124520 21 223 0.0 0.0 0.00 0.00 0.00 100 1019.6
20260831123016 21 223 0.0 0.0 0.00 0.00 0.00 100 1019.4
20260831121516 21 223 0.0 0.0 0.00 0.00 0.00 100 1019.3
20260831120015 20 223 0.0 0.0 0.00 0.00 0.00 99 1019.3
20260831114518 20 223 0.0 0.0 0.00 0.00 0.00 99 1019.0
20260831113013 20 223 0.0 0.0 0.00 0.00 0.00 99 1018.8
20260831111511 20 223 0.0 0.0 0.00 0.00 0.00 99 1018.7
20260831110015 21 223 0.0 0.0 0.00 0.00 0.00 99 1018.7
20260831104522 21 223 0.0 0.0 0.00 0.00 0.00 99 1018.4
20260831103006 21 223 0.0 0.0 0.00 0.00 0.00 99 1018.3
20260831101505 21 223 0.0 0.0 0.00 0.00 0.00 99 1018.2
20260831100005 21 223 0.0 0.0 0.00 0.00 0.00 99 1018.3
20260831094505 21 223 0.0 0.0 0.00 0.00 0.00 99 1018.2
20260831093006 21 223 0.0 0.0 0.00 0.00 0.00 99 1017.9
20260831091501 21 223 0.0 0.0 0.00 0.00 0.00 99 1017.9
20260831090101 21 223 0.0 0.0 0.00 0.00 0.00 98 1017.9
20260831084635 21 223 0.0 0.0 0.00 0.00 0.00 98 1017.9
20260831083058 21 223 0.0 0.0 0.00 0.00 0.00 98 1017.7
20260831081557 21 223 0.0 0.0 0.00 0.00 0.00 98 1017.6
20260831080110 21 223 0.0 0.0 0.00 0.00 0.00 98 1017.7
20260831074603 21 223 0.0 0.0 0.00 0.00 0.00 98 1017.6
20260831073055 21 223 0.0 0.0 0.00 0.00 0.00 97 1017.6
20260831071605 22 223 0.0 0.0 0.00 0.00 0.00 97 1017.6
20260831070052 22 223 0.0 0.0 0.00 0.00 0.00 97 1017.6
20260831064551 22 223 0.0 0.0 0.00 0.00 0.00 97 1017.8
20260831063049 22 223 0.0 0.0 0.00 0.00 0.00 97 1017.9
20260831061547 22 223 0.0 0.0 0.00 0.00 0.00 97 1018.0
20260831060058 22 223 0.0 0.0 0.00 0.00 0.00 97 1017.9
20260831054545 22 223 0.0 0.0 0.00 0.00 0.00 96 1017.9
20260831053053 22 223 0.0 0.0 0.00 0.00 0.00 96 1017.9
20260831051543 22 223 0.0 0.0 0.00 0.00 0.00 95 1017.8
20260831050048 23 223 0.0 0.0 0.00 0.00 0.00 95 1017.8
20260831044537 23 223 0.0 0.0 0.00 0.00 0.00 95 1017.9
20260831043043 23 223 0.0 0.0 0.00 0.00 0.00 94 1017.9
20260831041551 23 223 0.0 0.0 0.00 0.00 0.00 94 1017.9